Regional Weather Roundup
Issued by NWS

Home | Current Version | Previous Version | Text Only | Print | Product List | Glossary On
Versions: 1 2 3 4 5 6 7 8 9 10 11 12 13 14 15 16 17 18 19 20 21 22 23 24 25 26 27
000
ASUS44 KLIX 230113
RWRLA
LOUISIANA WEATHER ROUNDUP
NATIONAL WEATHER SERVICE NEW ORLEANS LA
800 PM CDT MON MAY 22 2017

NOTE: "FAIR" INDICATES FEW OR NO CLOUDS BELOW 12,000 FEET WITH NO
      SIGNIFICANT WEATHER AND/OR OBSTRUCTIONS TO VISIBILITY.
      SKY/WX - SKY CONDITION AND SIGNIFICANT WEATHER.
      TMP - AIR TEMPERATURE.    DP   - DEWPOINT TEMPERATURE.
      RH  - RELATIVE HUMIDITY.  PRES - PRESSURE.
      HX  - HEAT INDEX.         WCI  - WIND CHILL INDEX.

*  THESE STATIONS ARE NOT NWS OR FAA STATIONS AND ARE NOT UNDER
   NWS QUALITY CONTROL.

LAZ040-048-061>063-065-066-069-230200-
SOUTHEAST LOUISIANA

CITY           SKY/WX    TMP DP  RH WIND       PRES   REMARKS
N.O. INTL ARPT CLOUDY    75  71  87 SE13      29.89F
N.O. LAKEFRONT   N/A     76  72  87 E13       29.90F
N.O. DOWNTOWN*   N/A     76  71  85 SE7         N/A
RESERVE*       DRIZZLE   76  70  80 E3        29.88F
SLIDELL        CLOUDY    74  70  87 E5        29.90S
BATON ROUGE    CLOUDY    73  69  87 E8        29.87F
BOOTHVILLE     CLOUDY    76  74  93 E5        29.91F
BELLE CHASSE   CLOUDY    75  74  96 E6        29.89F
BOGALUSA*      CLOUDY    74  69  86 CALM      29.92S
GALLIANO*      CLOUDY    76  70  81 SE5       29.89F
NEW ROADS*     CLOUDY    72  69  92 SE6       29.87F
GONZALES*      CLOUDY    73  69  87 E3        29.87S
HAMMOND*       CLOUDY    73  68  83 E5        29.89S
HOUMA*         NOT AVBL
PORT FOURCHON* MOCLDY    77  73  88 SE12G17   29.90S

$$

LAZ041-044-053-054-230200-
SOUTHWEST LOUISIANA

CITY           SKY/WX    TMP DP  RH WIND       PRES   REMARKS
LAKE CHARLES   CLOUDY    72  72 100 CALM      29.83S
LAFAYETTE      HVY RAIN  73  72  96 SE8       29.84F FOG
PATTERSON      LGT RAIN  74  72  93 SE12G17   29.88R FOG
SALT POINT       N/A     72  70  93 VRB7      29.87R
NEW IBERIA     RAIN      73  70  90 SE18      29.85S FOG
CHENAULT AIRPK MOCLDY    72  70  94 SW6       29.84

$$

LAZ027-028-230200-
CENTRAL LOUISIANA

CITY           SKY/WX    TMP DP  RH WIND       PRES   REMARKS
FORT POLK      CLOUDY    67  66  96 NE5       29.86S
ALEXANDRIA INT CLOUDY    67  66  97 NE7       29.86S
ALEXANDRIA     LGT RAIN  67  67 100 NE6       29.87F

$$

LAZ001-002-230200-
NORTHWEST LOUISIANA

CITY           SKY/WX    TMP DP  RH WIND       PRES   REMARKS
SHREVEPORT     DRIZZLE   62  62 100 N7        29.93F
BARKSDALE AFB  DRIZZLE   62  62 100 NE7       29.93F FOG
DTN SHREVEPORT CLOUDY    63  60  90 NE8       29.94S FOG

$$

LAZ014-016-230200-
NORTHEAST LOUISIANA

CITY           SKY/WX    TMP DP  RH WIND       PRES   REMARKS
MONROE         LGT RAIN  65  64  97 NE6       29.93R
TALLULAH       HVY RAIN  67  65  93 N7        29.93S FOG

$$





USA.gov is the U.S. government's official web portal to all federal, state and local government web resources and services.